sat.trackr.live / text

‹ back to catalog

NSS-9

NORAD 33749 · 2009-008A

PAYLOAD ACTIVE UNKNOWN

§ Identity

Operator
Country
SES
Launch date
2009-02-12
Launch site
FRGUI
Launch vehicle
Mass (kg)
RCS (m²)
50.12

Purposes: comms

External: N2YO · Heavens-Above · Gunter

§ Orbital elements

Epoch: 2026-09-19T20:00:38.819232Z

Period
1,436.07 min
Inclination
1.4989°
Eccentricity
0.0002159
Mean motion
1.00273474 rev/d
Perigee alt
35,777.0 km
Apogee alt
35,795.2 km
Semi-major
42,164.3 km
B*
0.0000e+0
RAAN
81.5392°
Arg perigee
84.3858°
Mean anomaly
316.0577°
Rev number
6,447

§ Raw data

NSS-91 33749U 09008A   26262.83378263  .00000068  00000+0  00000+0 0  99932 33749   1.4989  81.5392 0002159  84.3858 316.0577  1.00273474 64478

JSON: /api/v1/satellites/33749 · /tle

For live sub-satellite position, see the globe view (requires WebGL).

§ Visibility from observer

Set your observer location to see the next 7 days of passes ≥ 10°. The values pass through the URL so the page stays shareable.

No JS? Fill the form by hand. The geolocation button needs JavaScript.